Regional Weather Roundup
Issued by NWS Nashville, TN

Home | Current Version | Previous Version | Text Only | Print | Product List | Glossary On
Versions: 1 2 3 4 5 6 7 8 9 10 11 12 13 14 15 16 17 18 19 20 21 22 23 24 25 26 27 28 29 30 31 32 33 34 35 36 37 38 39 40 41 42 43 44 45 46 47 48 49 50
000
ASUS44 KOHX 211710
RWROHX
MIDDLE TENNESSEE HOURLY WEATHER ROUNDUP
NATIONAL WEATHER SERVICE NASHVILLE TN
1100 AM CST SUN JAN 21 2018

NOTE: "FAIR" INDICATES FEW OR NO CLOUDS BELOW 12,000 FEET WITH
NO SIGNIFICANT WEATHER AND/OR OBSTRUCTIONS TO VISIBILITY.

* THESE REPORTS ARE NOT UNDER NWS QUALITY CONTROL AND MAY NOT
  REPORT WEATHER SUCH AS PRECIPITATION AND FOG.


TNZ005>011-023>034-057-059-062>066-078-080-211800
...NORTHERN MIDDLE TENNESSEE...

CITY           SKY/WX    TMP DP  RH WIND       PRES   REMARKS
CLARKSVILLE    CLOUDY    58  48  69 S12       30.14F
CROSSVILLE     CLOUDY    54  38  54 VRB6      30.24F
GALLATIN       CLOUDY    63  46  55 S10       30.18F
DICKSON        CLOUDY    53  50  90 S6        30.15F
NASHVILLE      PTSUNNY   64  46  52 SW9       30.17F
PORTLAND       PTSUNNY   61  48  63 S15G21    30.14F
SMYRNA         PTSUNNY   62  47  57 S13G24    30.18F
SPARTA         PTSUNNY   59  43  55 S7G13     30.20F
SPRINGFIELD    CLOUDY    59  48  67 S15       30.13F
WEST NASHVILLE PTSUNNY   61  46  59 S12       30.14F
$$
TNZ056-058-060-061-075>077-079-093>097-211800
...SOUTHERN MIDDLE TENNESSEE...

CITY           SKY/WX    TMP DP  RH WIND       PRES   REMARKS
COLUMBIA       PTSUNNY   61  43  51 S15G22    30.16F
FAYETTEVILLE   CLOUDY    59  41  51 S14       30.21F
MCMINNVILLE    SUNNY     61  45  55 W15       30.21F
SHELBYVILLE    CLOUDY    63  46  55 S14       30.20F
TULLAHOMA      MOSUNNY   61  45  55 S8        30.20F
WINCHESTER     SUNNY     63  43  48 S6        30.22F
$$


...KEY TO REMARKS...
VSB - VISIBILITY IN MILES
WCI - WIND CHILL INDEX
HX  - HEAT INDEX




USA.gov is the U.S. government's official web portal to all federal, state and local government web resources and services.